Regional Weather Roundup
Issued by NWS

Home | Current Version | Previous Version | Text Only | Print | Product List | Glossary On
Versions: 1 2 3 4 5 6 7 8 9 10 11 12 13 14 15 16 17 18 19 20 21 22 23 24 25 26 27 28 29 30 31 32 33 34 35 36 37 38 39 40 41 42 43 44 45 46 47 48 49 50
633
ASUS43 KMPX 271410
RWRMN
WEATHER ROUNDUP FOR MINNESOTA
NATIONAL WEATHER SERVICE TWIN CITIES/CHANHASSEN MN
900 AM CDT SAT MAY 27 2017


NOTE: "FAIR" INDICATES FEW OR NO CLOUDS BELOW 12,000 FEET WITH NO
SIGNIFICANT WEATHER AND/OR OBSTRUCTIONS TO VISIBILITY. N/A MEANS
CURRENT SKY AND/OR WEATHER CONDITIONS ARE NOT AVAILABLE.

MNZ060>063-068>070-271500-
   Twin Cities Metro

CITY           SKY/WX    TMP DP  RH WIND       PRES   REMARKS
TWIN CITIES    MOSUNNY   67  46  47 NW8       29.89R
ST PAUL        SUNNY     66  50  56 N3        29.89S
CRYSTAL        SUNNY     66  45  46 NW7       29.88S
BLAINE         MOSUNNY   66  48  52 W7        29.89R
LAKEVILLE      SUNNY     64  46  52 NW6       29.90R
EDEN PRAIRIE   SUNNY     68  49  50 NW7       29.89R
SOUTH ST PAUL  SUNNY     65  49  56 CALM      29.89R
LAKE ELMO      FAIR      64  50  59 NW7       29.90R
$$
MNZ001>005-007-008-013>017-022>024-027-028-271500-
   Northwest Minnesota

CITY           SKY/WX    TMP DP  RH WIND       PRES   REMARKS
BEMIDJI        SUNNY     62  45  54 S7        29.82F
HALLOCK        SUNNY     61  46  59 SW3       29.74S
ROSEAU         SUNNY     61  48  63 SW8       29.75S
WARROAD        SUNNY     59  48  67 W8        29.75F
THIEF RVR FALL SUNNY     59  43  55 SW8       29.79F
CROOKSTON      SUNNY     61  45  55 W8        29.80R
FOSSTON        SUNNY     59  45  58 S9        29.82S
DETROIT LAKES  CLOUDY    63  45  51 SW8       29.85S
MOORHEAD       SUNNY     63  43  48 W8        29.84S
PARK RAPIDS    CLOUDY    61  44  53 SW10      29.85S
MAHNOMEN       FAIR      61  43  50 SW9       29.83R
$$
MNZ006-009>011-018-025>026-271500-
   North Central Minnesota

CITY           SKY/WX    TMP DP  RH WIND       PRES   REMARKS
BAUDETTE       CLOUDY    60  47  61 S6        29.77S
FLAG ISLAND    MOSUNNY   55  46  71 CALM      29.73F
INTL FALLS     MOSUNNY   62  45  53 W9        29.79R
WASKISH        CLOUDY    61  48  63 SW8       29.80S
BIG FORK       SUNNY     64  46  52 SW6       29.83R
LONGVILLE      PTSUNNY   57  48  72 SW5       29.85S
CRANE LAKE     SUNNY     57  46  67 CALM      29.82S
ORR            CLOUDY    61  45  55 SW5       29.80R
COOK           CLOUDY    61  46  59 SW5       29.83S
WALKER         FAIR      61  43  52 SW8       29.83F
$$
MNZ012-019>021-037-271500-
   Northeast Minnesota

CITY           SKY/WX    TMP DP  RH WIND       PRES   REMARKS
DULUTH         CLOUDY    63  45  51 NW9       29.85R
ELY            CLOUDY    54  48  82 SW6       29.83R
HIBBING        PTSUNNY   56  49  77 W5        29.85R
EVELETH        PTSUNNY   58  47  67 SW3       29.85R
DULUTH HARBOR  SUNNY     61  54  77 SW6       29.85R
TWO HARBORS    PTSUNNY   66  52  59 N3        29.82R
SILVER BAY     CLOUDY    63  48  59 W3        29.82R
GRAND MARAIS     N/A     43  42  97 SW10      29.81R
G MARAIS ARPRT CLOUDY    61  45  55 W3        29.82S
$$
MNZ029>031-032-039>041-046>048-054>057-064-271500-
   West Central Minnesota

CITY           SKY/WX    TMP DP  RH WIND       PRES   REMARKS
FERGUS FALLS   MOSUNNY   61  46  59 W5        29.85S
WHEATON        CLOUDY    64  46  52 SW8       29.88S
MORRIS         CLOUDY    63  48  59 SW5       29.88S
ALEXANDRIA     PTSUNNY   59  48  67 SW7       29.89S
ELBOW LAKE     FAIR      59  49  69 S8        29.88S
WADENA         PTSUNNY   57  46  67 SW6       29.86S
GLENWOOD       CLOUDY    59  48  67 W7        29.90R
APPLETON       CLOUDY    61  48  63 SW3       29.89R
BENSON         CLOUDY    59  48  67 CALM      29.91S
ORTONVILLE     PTSUNNY   61  48  63 S3        29.88S
MADISON        CLOUDY    63  52  67 SW3       29.90R
WILLMAR        FAIR      59  50  72 SW3       29.92R
$$
MNZ033>034-036-042>043-049>051-058-059-271500-
   Central Minnesota

CITY           SKY/WX    TMP DP  RH WIND       PRES   REMARKS
ST CLOUD       CLOUDY    65  49  56 NW3       29.89S
SAUK CENTRE    FAIR      59  48  67 W5        29.89S
PAYNESVILLE    CLOUDY    60  48  62 SW5       29.91R
AITKIN         CLOUDY    59  48  67 SW3       29.85S
PINE RIVER     CLOUDY    57  48  72 CALM      29.89F
BRAINERD       CLOUDY    58  47  66 SW6       29.88R
STAPLES        CLOUDY    59  46  63 SW5       29.87S
LONG PRAIRIE   FAIR      55  46  71 S7        29.89S
LITTLE FALLS   CLOUDY    59  45  58 W3        29.89R
LITCHFIELD     MOSUNNY   64  52  63 CALM      29.91R
BUFFALO        SUNNY     64  48  56 W5        29.91R
MAPLE LAKE     SUNNY     65  49  56 W3        29.91R
HUTCHINSON     PTSUNNY   62  51  67 CALM      29.92R
$$
MNZ037-044-045-052-053-271500-
   East Central Minnesota

CITY           SKY/WX    TMP DP  RH WIND       PRES   REMARKS
PRINCETON      PTSUNNY   64  50  59 SW3       29.89S
MORA           MOSUNNY   61  46  59 CALM      29.89F
CAMBRIDGE      MOSUNNY   64  48  55 W6        29.87S
RUSH CITY      MOSUNNY   63  50  63 CALM      29.88F
MOOSE LAKE     CLOUDY    61  46  59 CALM      29.85S
HINCKLEY       FAIR      63  50  63 W5        29.88S
CLOQUET        SUNNY     63  45  51 W5        29.86R
MCGREGOR       PTSUNNY   61  46  59 CALM      29.87S
$$
MNZ071>073-080-081-089-090-097-098-271500-
   Southwest Minnesota

CITY           SKY/WX    TMP DP  RH WIND       PRES   REMARKS
MONTEVIDEO     CLOUDY    59  48  67 SW3       29.91R
CANBY          CLOUDY    62  50  65 CALM      29.92R
MARSHALL       CLOUDY    61  49  64 SW8       29.92R
REDWOOD FALLS  CLOUDY    63  49  60 SW6       29.92R
OLIVIA         CLOUDY    61  48  63 SW5       29.91R
PIPESTONE      CLOUDY    57  46  67 W5        29.94S
WINDOM         CLOUDY    61  52  72 W6        29.93S
WORTHINGTON    LGT RAIN  60  48  64 SW6       29.95R
JACKSON        PTSUNNY   61  46  59 W3        29.93R
TRACY          CLOUDY    60  50  69 SW10      29.93R
SLAYTON        CLOUDY    59  48  67 CALM      29.94F
$$
MNZ065>067-074>077-082>085-091>093-271500-
   South Central Minnesota

CITY           SKY/WX    TMP DP  RH WIND       PRES   REMARKS
MANKATO        CLOUDY    63  49  60 NW5       29.91S
NEW ULM        MOSUNNY   61  50  67 W6        29.91S
ST JAMES       CLOUDY    61  50  67 W3        29.92S
FAIRMONT       CLOUDY    66  46  48 N5        29.92R
GLENCOE        CLOUDY    62  53  72 CALM      29.90S
FARIBAULT      SUNNY     66  46  48 NW7       29.91R
OWATONNA       SUNNY     64  48  55 CALM      29.91R
WASECA         SUNNY     64  46  52 N5        29.92R
ALBERT LEA     MOSUNNY   66  52  59 N3        29.91R
$$
MNZ078>079-086>088-094>096-271500-
   Southeast Minnesota

CITY           SKY/WX    TMP DP  RH WIND       PRES   REMARKS
ROCHESTER      SUNNY     64  52  64 NW6       29.92R
RED WING       SUNNY     64  48  55 W6        29.89R
STANTON        SUNNY     66  50  56 NW5       29.89R
DODGE CENTER   SUNNY     66  46  48 NW5       29.91R
WINONA         SUNNY     64  55  72 CALM      29.89R
AUSTIN         SUNNY     64  52  63 N5        29.90S
PRESTON        SUNNY     63  52  66 CALM      29.91S
$$
ABBREVIATIONS USED IN REMARKS
   TC - TEMPERATURES IN CELSIUS
  WCI - WIND CHILL INDEX
   HX - HEAT INDEX
  VSB - VISIBILITY
$$




USA.gov is the U.S. government's official web portal to all federal, state and local government web resources and services.